Preview of NWS' New Version of Forecast
This preview is not operational and should not be used for support decisions.

Regional Weather Roundup (RWR)

Issued by National Weather Service (NWS)

                            
000
ASUS46 KPQR 201810
RWROR 

OREGON REGIONAL WEATHER ROUNDUP
NATIONAL WEATHER SERVICE PORTLAND OR
1100 AM PDT WED MAR 20 2019

NOTE: "FAIR" INDICATES FEW OR NO CLOUDS BELOW 12,000 FEET WITH
NO SIGNIFICANT WEATHER AND/OR OBSTRUCTIONS TO VISIBILITY.

ORZ001>013-201900-
NORTHWEST OREGON

  
CITY           SKY/WX    TMP DP  RH WIND       PRES   REMARKS
ASTORIA        MOSUNNY   60  40  47 SW3       29.82F                  
6HR MIN TEMP:  41; 6HR MAX TEMP:  60;                                

TILLAMOOK      MOSUNNY   59  45  58 CALM      29.82F                  
NEWPORT        PTSUNNY   55  46  71 SW8       29.85R HAZE             
PORTLAND       PTSUNNY   61  36  39 SE14      29.86S                  
6HR MIN TEMP:  46; 6HR MAX TEMP:  62;                                

VANCOUVER WA   PTSUNNY   61  36  39 SE6       29.86F                  
6HR MIN TEMP:  38; 6HR MAX TEMP:  62;                                

SCAPPOOSE      PTSUNNY   66  36  32 SW6       29.86F                  
6HR MIN TEMP:  39; 6HR MAX TEMP:  66;                                

HILLSBORO      PTSUNNY   63  32  31 E14G21    29.85F                  
6HR MIN TEMP:  50; 6HR MAX TEMP:  63;                                

AURORA         CLOUDY    66  30  26 NE14G22   29.83S                  
6HR MIN TEMP:  51; 6HR MAX TEMP:  67;                                

MCMINNVILLE    PTSUNNY   59  37  44 N13       29.82F                  
6HR MIN TEMP:  50; 6HR MAX TEMP:  59;                                

SALEM          MOSUNNY   64  35  34 N8        29.81S                  
6HR MIN TEMP:  43; 6HR MAX TEMP:  64;                                

CORVALLIS      PTSUNNY   59  38  45 CALM      29.83R                  
EUGENE         PTSUNNY   57  40  52 W5        29.83R                  
6HR MIN TEMP:  44; 6HR MAX TEMP:  57;                                

$$

ORZ021-028-201900-
SOUTHWEST OREGON

  
CITY           SKY/WX    TMP DP  RH WIND       PRES   REMARKS
NORTH BEND     PTSUNNY   54  46  74 NW3       29.89R                  
6HR MIN TEMP:  46; 6HR MAX TEMP:  54;                                

BROOKINGS      LGT RAIN  52  44  74 CALM      29.90F                  
ROSEBURG       CLOUDY    59  38  45 CALM      29.84R                  
6HR MIN TEMP:  51; 6HR MAX TEMP:  59;                                

SEXTON SUMMIT  CLOUDY    44  30  57 S9        29.86R                  
6HR MIN TEMP:  41; 6HR MAX TEMP:  47;                                

GRANTS PASS    CLOUDY    55  32  41 SE7       29.89R                  
MEDFORD        PTSUNNY   59  37  44 SE13      29.85R                  
6HR MIN TEMP:  50; 6HR MAX TEMP:  59;                                

$$

ORZ014>016-041-201900-
COLUMBIA GORGE

  
CITY           SKY/WX    TMP DP  RH WIND       PRES   REMARKS
TROUTDALE      MOSUNNY   60  36  40 E24G31    29.85S                  
6HR MIN TEMP:  49; 6HR MAX TEMP:  60;                                

HOOD RIVER     SUNNY     52  37  58 N7        30.01F                  
THE DALLES     SUNNY     48  37  65 CALM      30.04F                  
6HR MIN TEMP:  31; 6HR MAX TEMP:  48;                                

$$

ORZ029>031-041-044-049-050-061>064-502-503-505>511-201900-
EASTERN OREGON

  
CITY           SKY/WX    TMP DP  RH WIND       PRES   REMARKS
MADRAS         PTSUNNY   39  34  81 S5        30.02S                  
REDMOND        PTSUNNY   40  35  83 CALM      29.99S                  
6HR MIN TEMP:  28; 6HR MAX TEMP:  40;                                

BEND           MOSUNNY   43  34  70 CALM      29.98S                  
PRINEVILLE     CLOUDY    36  34  93 CALM      30.00R                  
KLAMATH FALLS  CLOUDY    45  38  76 SE16      29.93R                  
6HR MIN TEMP:  42; 6HR MAX TEMP:  50; 6HR PCP:  0.02;                

LAKEVIEW       CLOUDY    42  37  82 SE9       29.99S                  
HERMISTON      SUNNY     50  37  61 VRB3      30.04F                  
6HR MIN TEMP:  27; 6HR MAX TEMP:  50;                                

PENDLETON      SUNNY     51  38  60 N7        30.01F                  
6HR MIN TEMP:  29; 6HR MAX TEMP:  51;                                

JOHN DAY       PTSUNNY   53  19  25 E14G22    29.99R                  
MEACHAM        SUNNY     53  16  23 VRB5      30.00S                  
6HR MIN TEMP:  25; 6HR MAX TEMP:  53;                                

LA GRANDE      NOT AVBL                                               
BAKER CITY     SUNNY     56  25  30 E6        30.08F                  
6HR MIN TEMP:  22; 6HR MAX TEMP:  56;                                

BURNS          CLOUDY    48  19  31 NE23G33   30.00S                  
6HR MIN TEMP:  40; 6HR MAX TEMP:  49;                                

ROME             N/A     52  21  29 VRB5      29.99R                  
6HR MIN TEMP:  31; 6HR MAX TEMP:  52;                                

ONTARIO        MOSUNNY   54  28  36 E5        30.13S                  
6HR MIN TEMP:  24; 6HR MAX TEMP:  54;                                

$$